User: anonymous   Login
Location: Unspecified
(0.0000°N, 0.0000°E)
Time: 21:51:08
(UTC+00:00)
Language:

COSMOS 2463 - Orbit

View from above orbital plane
View from above orbital plane
View from above satellite
View from above satellite

Ground track
Ground track

The orbit data is extracted from the following two-line orbital elements,

1 36519U 10017A   24104.13629324  .00000047  00000-0  35500-4 0  9992
2 36519  82.9562 113.8507 0036295 173.8592 256.1393 13.71550423699030
Epoch (UTC): 13 April 2024 03:16:15
Eccentricity: 0.0036295
inclination: 82.9562°
perigee height: 967 km
apogee height: 1021 km
right ascension of ascending node: 113.8507°
argument of perigee: 173.8592°
revolutions per day: 13.71550423
mean anomaly at epoch: 256.1393°
orbit number at epoch: 69903

The dashed part of the orbit path shows where the satellite is in the earth's shadow,  

DLR